Location: Unspecified
(0.0000°N, 0.0000°E)
Time: 23:49:26
(UTC+00:00)

Vanguard 2 - Pass Details

Date: 01 October 2020
Orbit: 554 x 2937 km, 32.9° (Epoch: 28 October)

Event Time Altitude Azimuth Distance (km) Brightness Sun altitude
Rises 02:56:57 0° 262° (W) 6,229 - -43.1°
Reaches altitude 10° 03:02:47 10° 275° (W) 4,817 - -41.6°
Maximum altitude 03:11:57 23° 321° (NW) 3,114 - -39.3°
Exits shadow 03:17:32 13° 3° (N) 3,192 10.6 -37.9°
Drops below altitude 10° 03:18:33 10° 10° (N) 3,332 10.8 -37.7°
Sets 03:21:43 0° 25° (NNE) 3,957 11.4 -36.9°
